[[{"header":{"parameterUnit":"m.s-1","parameterCategory":1,"la1":30.2991,"la2":30.254,"lo1":-89.0895,"lo2":-89.0444,"dy":0.0017,"dx":0.0017,"nx":28,"ny":28,"refTime":"2025-09-01T21:00:00:Z","depth":0,"parameterNumber":2,"parameterNumberName":"U-component_of_WINDS"},"data":[0,0,0,0,0,0,0,0,0,0,0,0,0,0,0,0,0,0,0,0,0,0,0,0,0,0,0,0,0,0,0,0,0,0,0,0,0,0,0,0,0,0,0,0,0,0,0,0,0,0,0,0,0,0,0,0,0,0,-1.7086,-1.7087,0,-1.7153,-1.7154,-1.7154,-1.7128,-1.7126,-1.7125,-1.7123,-1.7193,-1.7196,-1.7199,0,0,0,0,0,0,0,0,0,0,0,0,0,-1.6935,-1.6938,-1.7086,-1.7087,-1.7087,-1.7153,-1.7154,-1.7155,-1.7128,-1.7126,-1.7124,-1.7122,-1.7192,-1.7196,-1.72,0,0,0,0,0,0,0,0,0,0,0,0,0,-1.7001,-1.6939,-1.7086,-1.7082,-1.7082,-1.7153,-1.7154,-1.7155,-1.7128,-1.7126,-1.7124,-1.7121,-1.719,-1.7195,-1.72,-1.7278,0,0,-1.7215,-1.7218,0,0,0,0,0,0,0,0,-1.6997,-1.7007,-1.7082,-1.7082,-1.7083,-1.7129,-1.7126,-1.7196,-1.7129,-1.7111,-1.7123,-1.712,-1.7174,-1.718,-1.7198,-1.7282,-1.7285,-1.7216,-1.7219,-1.7221,-1.7223,0,0,0,0,0,0,0,-1.6993,-1.7004,-1.7112,-1.7083,-1.7084,-1.7077,-1.7084,-1.7139,-1.7155,-1.7112,-1.7111,-1.7119,-1.7174,-1.7193,-1.7199,-1.7286,-1.7216,-1.722,-1.7223,-1.7225,-1.7437,-1.7439,0,0,0,0,0,0,-1.6988,-1.7,-1.711,-1.7114,-1.7033,-1.7082,-1.7089,-1.7117,-1.7154,-1.7157,-1.7121,-1.7117,-1.7186,-1.7193,-1.7202,-1.7296,-1.7221,-1.7226,-1.7229,-1.7434,-1.7437,-1.744,0,0,0,0,0,0,-1.6985,-1.6998,-1.7107,-1.7057,-1.707,-1.7087,-1.7118,-1.7119,-1.7139,-1.716,-1.7163,-1.7138,-1.7184,-1.7195,-1.7259,-1.7298,-1.7228,-1.7233,-1.7431,-1.7435,-1.7439,-1.7485,0,0,0,0,0,0,-1.6981,-1.6997,-1.7027,-1.7058,-1.7073,-1.7164,-1.712,-1.7122,-1.7147,-1.7144,-1.7177,-1.718,-1.7183,-1.7252,-1.7264,-1.7303,-1.7236,-1.7428,-1.7433,-1.7437,-1.748,-1.749,-1.7498,0,0,0,0,0,-1.6975,-1.7038,-1.7029,-1.7042,-1.7111,-1.7167,-1.7175,-1.7177,-1.7151,-1.7181,-1.7195,-1.7179,-1.7291,-1.7259,-1.7273,-1.7314,-1.7425,-1.7431,-1.7437,-1.7476,-1.7488,-1.7498,0,0,0,0,0,0,-1.7012,-1.7042,-1.7032,-1.7106,-1.7134,-1.7162,-1.72,-1.719,-1.7226,-1.7221,-1.7221,-1.7229,-1.7296,-1.7311,-1.7274,-1.7391,-1.7354,-1.7363,-1.7379,-1.7391,-1.74,-1.7395,-1.7241,0,0,0,0,0,-1.7028,-1.7071,-1.7095,-1.7158,-1.7172,-1.7184,-1.7208,-1.7207,-1.7236,-1.7248,-1.7266,-1.7295,-1.7337,-1.7364,-1.7404,-1.7481,-1.7489,-1.7516,-1.7525,-1.7533,-1.7541,-1.7583,-1.7596,-1.746,-1.7459,-1.7459,0,0,-1.7064,-1.7085,-1.7112,-1.7166,-1.7187,-1.7232,-1.7194,-1.7243,-1.7276,-1.7255,-1.7318,-1.7332,-1.7364,-1.7436,-1.7468,-1.7451,-1.758,-1.754,-1.7546,-1.755,-1.7591,-1.7604,-1.7615,-1.7464,-1.7463,-1.7462,0,0,-1.715,-1.717,-1.7225,-1.7247,-1.728,-1.7287,-1.73,-1.7329,-1.7338,-1.74,-1.7386,-1.7425,-1.7497,-1.752,-1.7542,-1.7636,-1.7623,-1.7649,-1.7697,-1.7738,-1.7749,-1.7759,-1.7793,-1.7805,-1.7656,-1.7656,-1.7656,0,-1.719,-1.7256,-1.7255,-1.7305,-1.7329,-1.7311,-1.7366,-1.7388,-1.7432,-1.7449,-1.7428,-1.7517,-1.7538,-1.7615,-1.7638,-1.7655,-1.7671,-1.7646,-1.7748,-1.7757,-1.7766,-1.7799,-1.7812,-1.7659,-1.7659,-1.7659,-1.7658,0,-1.7303,-1.7349,-1.7389,-1.7432,-1.746,-1.7513,-1.752,-1.7548,-1.7544,-1.7553,-1.7617,-1.7641,-1.7685,-1.7702,-1.7699,-1.7779,-1.7767,-1.7747,-1.771,-1.7782,-1.7813,-1.7825,-1.7664,-1.7662,-1.7662,-1.7661,0,0,-1.7417,-1.7457,-1.7472,-1.7491,-1.7525,-1.756,-1.7611,-1.7654,-1.7679,-1.7709,-1.7753,-1.7813,-1.7795,-1.7819,-1.7818,-1.7854,-1.7927,-1.7829,-1.783,-1.7847,-1.8018,-1.8034,-1.8048,-1.7918,-1.7921,-1.7923,-1.8015,0,-1.7507,-1.7597,-1.7597,-1.768,-1.7723,-1.7705,-1.775,-1.7776,-1.7786,-1.7823,-1.7834,-1.7877,-1.7849,-1.7863,-1.7898,-1.7911,-1.7962,-1.7904,-1.796,-1.7962,-1.7954,-1.8064,-1.8081,-1.8168,-1.8027,-1.8029,-1.8031,0,-1.7625,-1.7658,-1.7746,-1.7773,-1.7791,-1.7831,-1.787,-1.7906,-1.7934,-1.7939,-1.7965,-1.7958,-1.801,-1.7971,-1.8043,-1.8004,-1.8026,-1.8036,-1.8039,-1.8046,-1.8002,-1.8075,-1.8195,-1.8208,-1.8049,-1.8048,-1.8047,0,-1.77,-1.7767,-1.7828,-1.7845,-1.7878,-1.7906,-1.7921,-1.7947,-1.7973,-1.8006,-1.8023,-1.8062,-1.8084,-1.8115,-1.8118,-1.8089,-1.8191,-1.8152,-1.8197,-1.8197,-1.8221,-1.822,-1.8348,-1.8233,-1.8233,-1.8233,-1.8232,0,-1.7802,-1.7856,-1.7862,-1.79,-1.796,-1.7959,-1.8019,-1.8031,-1.8054,-1.8094,-1.8081,-1.8119,-1.8121,-1.816,-1.8163,-1.8222,-1.8232,-1.8238,-1.8238,-1.824,-1.8239,-1.8256,-1.825,-1.8236,-1.8235,-1.8235,-1.8234,0,-1.7897,-1.7903,-1.7969,-1.7994,-1.8001,-1.8045,-1.8067,-1.8103,-1.811,-1.8161,-1.8173,-1.8185,-1.823,-1.8236,-1.8288,-1.829,-1.8362,-1.8356,-1.8353,-1.8352,-1.8398,-1.8394,-1.8542,-1.8562,-1.8433,-1.8434,-1.8435,0,-1.7962,-1.8004,-1.8033,-1.8058,-1.8075,-1.8116,-1.8142,-1.8141,-1.8169,-1.8204,-1.8236,-1.8279,-1.8314,-1.8386,-1.84,-1.844,-1.8435,-1.8484,-1.8441,-1.8441,-1.8437,-1.8435,-1.8439,-1.8493,-1.8494,-1.8495,-1.8496,0,-1.8078,-1.8078,-1.8115,-1.8154,-1.8184,-1.8214,-1.8243,-1.8264,-1.8267,-1.8299,-1.8344,-1.8371,-1.8424,-1.8467,-1.8506,-1.8522,-1.851,-1.8509,-1.8522,-1.8525,-1.8522,-1.8525,-1.8377,-1.8506,-1.8505,-1.8505,-1.8504,-1.8504,-1.8161,-1.8197,-1.8223,-1.8265,-1.8285,-1.8312,-1.8347,-1.8358,-1.8396,-1.8439,-1.8436,-1.8486,-1.8513,-1.8564,-1.8582,-1.8622,-1.8606,-1.8624,-1.8629,-1.8634,-1.8639,-1.8514,-1.8629,-1.8628,-1.8628,-1.8628,-1.8628,0,-1.8277,-1.8292,-1.833,-1.837,-1.8403,-1.8387,-1.8417,-1.8446,-1.849,-1.8515,-1.8549,-1.8601,-1.8643,-1.8659,-1.87,-1.8728,-1.8724,-1.8739,-1.8738,-1.8742,-1.865,-1.8636,-1.8742,-1.8742,-1.8742,-1.8742,-1.8742,-1.8742,-1.8341,-1.8401,-1.8405,-1.8475,-1.849,-1.8538,-1.8557,-1.8581,-1.8602,-1.866,-1.8694,-1.8704,-1.8726,-1.8768,-1.8806,-1.8809,-1.8826,-1.8843,-1.8845,-1.876,-1.8748,-1.8737,-1.8724,-1.8847,-1.8847,-1.8933,-1.8934,-1.8935]},{"header":{"parameterUnit":"m.s-1","parameterCategory":1,"la1":30.2991,"la2":30.254,"lo1":-89.0895,"lo2":-89.0444,"dy":0.0017,"dx":0.0017,"nx":28,"ny":28,"refTime":"2025-09-01T21:00:00:Z","depth":0,"parameterNumber":3,"parameterNumberName":"V-component_of_WINDS"},"data":[0,0,0,0,0,0,0,0,0,0,0,0,0,0,0,0,0,0,0,0,0,0,0,0,0,0,0,0,0,0,0,0,0,0,0,0,0,0,0,0,0,0,0,0,0,0,0,0,0,0,0,0,0,0,0,0,0,0,1.036,1.0359,0,1.0285,1.0284,1.0283,1.0186,1.0184,1.0183,1.0181,1.0103,1.0102,1.0102,0,0,0,0,0,0,0,0,0,0,0,0,0,1.0417,1.0417,1.036,1.0359,1.0358,1.0285,1.0284,1.0283,1.0186,1.0184,1.0182,1.0181,1.0103,1.0102,1.0101,0,0,0,0,0,0,0,0,0,0,0,0,0,1.0372,1.0417,1.036,1.0301,1.0295,1.0285,1.0284,1.0283,1.0187,1.0184,1.0182,1.018,1.0103,1.0102,1.0101,1.0143,0,0,1.0099,1.0098,0,0,0,0,0,0,0,0,1.0375,1.037,1.0311,1.0305,1.0298,1.0242,1.0275,1.0236,1.0187,1.0228,1.0181,1.0179,1.0151,1.0146,1.0137,1.0139,1.0136,1.0098,1.0098,1.0097,1.0097,0,0,0,0,0,0,0,1.0378,1.0373,1.033,1.031,1.0302,1.0278,1.0269,1.0267,1.0203,1.0224,1.0217,1.0209,1.0147,1.0138,1.0134,1.0135,1.0098,1.0098,1.0097,1.0097,1.0166,1.0168,0,0,0,0,0,0,1.039,1.0376,1.0332,1.0328,1.0332,1.0279,1.0268,1.0263,1.0203,1.0192,1.0211,1.0205,1.0141,1.0136,1.0131,1.0175,1.0097,1.0097,1.0096,1.0164,1.0166,1.0169,0,0,0,0,0,0,1.0392,1.0387,1.0335,1.035,1.0342,1.028,1.0274,1.0262,1.0253,1.0194,1.0182,1.0214,1.0139,1.0133,1.0141,1.0171,1.0096,1.0095,1.0161,1.0164,1.0168,1.0264,0,0,0,0,0,0,1.0394,1.0389,1.0404,1.0351,1.0341,1.0347,1.0276,1.0263,1.0252,1.0243,1.0193,1.0182,1.0137,1.0143,1.014,1.0168,1.0095,1.0158,1.0162,1.0167,1.0258,1.027,1.0281,0,0,0,0,0,1.0397,1.0434,1.0406,1.0401,1.036,1.0349,1.0343,1.029,1.0255,1.027,1.0232,1.0184,1.0169,1.0144,1.014,1.0169,1.0155,1.0161,1.0166,1.0252,1.0268,1.0281,0,0,0,0,0,0,1.0492,1.0426,1.0394,1.0415,1.0389,1.0333,1.0349,1.0308,1.029,1.0282,1.0217,1.0206,1.0222,1.0196,1.017,1.0205,1.0155,1.016,1.0222,1.0236,1.0247,1.0253,1.0094,0,0,0,0,0,1.0515,1.0513,1.0455,1.048,1.0468,1.0412,1.0405,1.0367,1.0336,1.0324,1.0286,1.0257,1.0246,1.0239,1.0226,1.0254,1.0241,1.0271,1.0283,1.0293,1.0298,1.0309,1.0322,1.0187,1.0187,1.0187,0,0,1.0564,1.0528,1.053,1.0498,1.0473,1.0471,1.0403,1.0404,1.0401,1.0324,1.0329,1.03,1.0264,1.0282,1.0288,1.0261,1.0332,1.03,1.0308,1.0307,1.0316,1.0329,1.0341,1.019,1.019,1.0189,0,0,1.0651,1.0624,1.0641,1.0617,1.058,1.0542,1.0547,1.0497,1.0475,1.0479,1.0421,1.0417,1.0399,1.0375,1.036,1.0439,1.0394,1.0436,1.0497,1.0509,1.052,1.0529,1.0556,1.0566,1.0441,1.0442,1.0442,0,1.0716,1.0711,1.0655,1.0659,1.0647,1.0577,1.0594,1.0573,1.0533,1.0526,1.0496,1.0472,1.0442,1.0453,1.0473,1.0464,1.0466,1.0441,1.0523,1.0532,1.0539,1.0564,1.0575,1.0447,1.0446,1.0446,1.0445,0,1.0792,1.079,1.0808,1.0772,1.0761,1.0772,1.0716,1.0712,1.0675,1.064,1.0645,1.0608,1.0585,1.0585,1.0548,1.059,1.0574,1.0535,1.0483,1.0558,1.0581,1.059,1.0454,1.0453,1.0451,1.045,0,0,1.0936,1.0869,1.0876,1.0859,1.0813,1.0809,1.0817,1.0795,1.0792,1.0767,1.0771,1.0757,1.072,1.0704,1.0664,1.0675,1.0739,1.0634,1.0632,1.0654,1.0781,1.0811,1.0823,1.0709,1.0711,1.0712,1.0784,0,1.1013,1.1022,1.0972,1.0994,1.099,1.0925,1.0931,1.0903,1.0871,1.0862,1.0826,1.0817,1.077,1.076,1.0768,1.073,1.0763,1.0724,1.0711,1.0711,1.0721,1.0834,1.0865,1.0935,1.0793,1.0794,1.0795,0,1.1104,1.1085,1.1107,1.1059,1.1056,1.1063,1.1038,1.1032,1.0999,1.0974,1.0957,1.0911,1.0913,1.0865,1.0867,1.0841,1.0833,1.0813,1.0815,1.081,1.0757,1.0832,1.0956,1.0966,1.0808,1.0807,1.0806,0,1.1205,1.1185,1.1195,1.1182,1.1128,1.1134,1.1111,1.1075,1.1066,1.1044,1.1037,1.1016,1.1004,1.0989,1.0938,1.0908,1.0946,1.0893,1.0925,1.0926,1.0934,1.0934,1.1058,1.0932,1.0932,1.0931,1.0931,0,1.1296,1.1312,1.124,1.1246,1.1261,1.1203,1.122,1.1191,1.116,1.1158,1.11,1.11,1.1034,1.1026,1.0987,1.0994,1.0989,1.0969,1.0958,1.0973,1.0976,1.0966,1.0959,1.0934,1.0934,1.0933,1.0933,0,1.1411,1.1364,1.137,1.1318,1.1306,1.1319,1.1274,1.1277,1.1242,1.1241,1.1237,1.1181,1.1169,1.1117,1.1093,1.1066,1.1086,1.1065,1.1097,1.109,1.1124,1.1121,1.1244,1.1256,1.1124,1.1126,1.1127,0,1.1472,1.1482,1.1432,1.1427,1.1407,1.1401,1.139,1.1334,1.1325,1.1288,1.1296,1.1279,1.1262,1.1246,1.1202,1.1183,1.116,1.1205,1.1157,1.1172,1.1159,1.1159,1.1159,1.1215,1.1217,1.1218,1.1219,0,1.1583,1.156,1.1547,1.1527,1.1517,1.1498,1.1475,1.1475,1.1412,1.1405,1.1392,1.138,1.1354,1.1338,1.1312,1.1287,1.1242,1.1235,1.1241,1.1256,1.1273,1.1263,1.1124,1.1232,1.1231,1.123,1.1229,1.1228,1.1672,1.1678,1.1643,1.1632,1.1609,1.159,1.159,1.1555,1.1543,1.1519,1.1486,1.1478,1.1443,1.1403,1.1382,1.1374,1.1349,1.1358,1.136,1.1363,1.137,1.1276,1.1369,1.1368,1.1368,1.1368,1.1367,0,1.1779,1.1754,1.1744,1.1715,1.1706,1.1666,1.1639,1.1633,1.1627,1.1599,1.1585,1.157,1.1554,1.1509,1.1488,1.149,1.1469,1.1486,1.1485,1.148,1.1394,1.139,1.1504,1.1504,1.1504,1.1504,1.1504,1.1504,1.1834,1.1842,1.1814,1.181,1.1785,1.1776,1.1764,1.1746,1.1723,1.171,1.1696,1.1668,1.1633,1.1609,1.1592,1.158,1.1574,1.1598,1.1578,1.1499,1.1486,1.1473,1.1469,1.1598,1.1598,1.1664,1.1665,1.1666]}]]